{"data":{"norad_id":67825,"epoch":"2026-05-25T03:52:51.051936Z","epoch_age_seconds":64625,"freshness":"FRESH","line1":"1 67825U 26033E   26145.16170199  .00013132  00000+0  48591-3 0  9993","line2":"2 67825  42.9998 194.8017 0001327 277.5738  82.4962 15.27577269 16372","mean_motion":15.27577269,"eccentricity":0.0001327,"inclination_deg":42.9998,"raan_deg":194.8017,"arg_perigee_deg":277.5738,"mean_anomaly_deg":82.4962,"bstar":0.00048591,"rev_number":1637,"period_min":94.266917243582,"perigee_km":482.1467931682,"apogee_km":483.96775412842,"semimajor_km":6861.1942736483,"source":"CELESTRAK","updated_at":"2026-05-25T13:38:21.698022Z"}}